Location: Table Rock
(44.3339°N, 118.3154°W)
Time: 02:48:30
(UTC-08:00)

Daily predictions for brighter satellites

Satellite Brightness Start Highest point End
(mag) Time Altitude Azimuth Time Altitude Azimuth Time Altitude Azimuth
Cosmos 2333 Rocket 4.4 03:43:13 18° SE 03:43:13 18° SE 03:44:43 10° SE
Cosmos 2219 Rocket 4.4 04:07:49 15° SSE 04:07:49 15° SSE 04:08:39 10° SSE
USA 234 4.1 04:05:18 10° E 04:11:19 40° NNE 04:11:49 40° N
Cosmos 2237 Rocket 2.7 04:31:30 51° SSE 04:31:30 51° SSE 04:35:39 10° SSE
SL-16 R/B 3.2 04:30:40 34° NNE 04:32:24 43° ENE 04:37:47 10° SE
Cosmos 2297 Rocket 2.5 04:41:55 35° S 04:44:15 64° ESE 04:49:52 10° NNE
SL-08 R/B 4.3 04:41:12 10° S 04:47:22 85° W 04:53:30 10° N
SeaSat 1 4.2 04:45:56 10° NNE 04:47:41 21° N 04:47:41 21° N
Cosmos 2227 Rocket 2.0 04:56:03 74° WSW 04:56:26 79° WNW 05:02:08 10° NNE
Meteor 1-21 Rocket 4.1 04:57:37 70° WSW 04:57:37 70° WSW 05:02:55 10° S
Meteor 1-28 Rocket 4.4 04:56:03 10° SE 04:59:36 41° ENE 05:00:25 36° NE
Aureole 2 Rocket 3.1 05:02:27 73° E 05:02:27 73° E 05:06:34 10° SSE
Cosmos 1743 Rocket 3.5 05:05:32 63° N 05:06:13 81° E 05:10:37 10° S
USA 229 DEB 3.7 05:03:48 39° NW 05:06:50 84° SW 05:14:04 10° SSE
USA 229 3.7 05:03:52 38° NW 05:06:56 85° SW 05:14:10 10° SSE
Cosmos 783 Rocket 4.4 05:07:00 50° NNW 05:08:26 85° WSW 05:13:40 10° SSE
Cosmos 2016 Rocket 4.2 05:11:48 47° WNW 05:11:48 47° WNW 05:17:29 10° N
Meteor 1-4 Rocket 3.6 05:08:48 10° S 05:12:21 46° E 05:16:00 10° NNE
Cosmos 1980 4.5 05:17:43 33° SW 05:17:43 33° SW 05:21:35 10° S
Cosmos 1842 Rocket 3.8 05:12:40 10° S 05:16:57 68° E 05:21:18 10° NNE
COSMO-SKYMED 1 2.4 05:12:43 10° S 05:17:02 73° WSW 05:17:20 69° WNW
Cosmos 2233 Rocket 4.0 05:12:20 10° S 05:18:34 86° E 05:24:55 10° N
Cosmos 540 Rocket 3.5 05:19:55 51° W 05:20:00 51° WSW 05:24:57 10° S
Cosmos 2333 Rocket 3.6 05:25:17 22° SW 05:25:17 22° SW 05:27:54 10° SSW
Cosmos 2082 3.7 05:22:04 38° WSW 05:23:58 55° WNW 05:29:38 10° NNE
Cosmos 2058 4.1 05:21:08 10° N 05:25:05 42° ENE 05:29:00 10° SSE
Cosmos 1328 3.8 05:26:07 25° N 05:28:23 83° E 05:32:22 10° S
ATLAS 2AS CENTAUR R/B 4.5 05:22:06 12° NNW 05:28:24 28° NNE 05:35:01 10° E
ISS -3.2 05:28:35 68° NE 05:28:35 68° NE 05:31:45 10° ESE
Cosmos 1500 Rocket 3.4 05:31:10 21° NNW 05:34:02 71° W 05:38:28 10° S
Cosmos 1538 Rocket 4.1 05:31:00 13° NNW 05:35:52 78° ENE 05:41:14 10° SSE
Cosmos 1603 4.4 05:30:40 10° NNW 05:36:09 51° ENE 05:41:38 10° SE
ERBS 3.3 05:36:35 33° N 05:37:30 41° NE 05:40:46 10° ESE
Cosmos 2151 3.0 05:33:24 10° N 05:37:39 81° E 05:41:53 10° S
Tsikada Rocket 4.4 05:35:28 10° NNW 05:41:21 40° W 05:47:09 10° SSW
Helios 1B rocket 4.3 05:40:11 10° SE 05:43:44 29° ENE 05:47:19 10° N
Cosmos 304 Rocket 3.8 05:43:52 25° NW 05:46:33 57° WSW 05:51:13 10° S
Cosmos 1818 4.5 05:46:03 27° NW 05:46:51 28° NW 05:51:33 10° NNE
Cosmos 2346 Rocket 4.5 05:43:26 10° NNW 05:49:26 57° W 05:55:22 10° S
Ariane Rocket 2.9 05:45:29 10° N 05:50:35 74° WNW 05:55:41 10° SSW
USA 234 3.2 05:47:21 10° SE 05:53:56 88° SW 05:59:11 17° NW
Cosmos 220 Rocket 4.0 05:52:39 10° SSW 05:57:01 60° WNW 06:01:24 10° NNE
Genesis I 3.7 05:58:21 16° NNW 06:01:22 58° NE 06:05:14 10° SE
NOSS 3-1 (C) 4.0 05:55:50 13° NW 06:02:48 85° SW 06:11:08 10° SSE
Cosmos 1703 3.6 05:59:09 10° N 06:03:04 66° E 06:06:57 10° SSE
Cosmos 1464 Rocket 4.0 05:59:49 10° S 06:06:11 89° W 06:12:32 10° N
SJ-12 4.2 06:02:15 10° NNE 06:06:21 73° ESE 06:10:25 10° S
CSL-04 Rocket 3.6 06:03:07 10° N 06:08:23 63° WNW 06:13:35 10° SSW
Cosmos 1340 Rocket 2.7 06:06:12 10° NNW 06:10:06 61° W 06:13:59 10° S
YAOGAN 1 3.4 06:06:36 10° NNE 06:10:52 55° E 06:15:07 10° S
Cosmos 2237 Rocket 3.8 06:13:24 14° W 06:13:24 14° W 06:15:52 10° SW
SL-16 R/B 3.0 06:12:36 15° NW 06:16:20 30° WSW 06:21:11 10° SSW
PAYLOAD A 3.9 06:13:59 10° N 06:19:04 65° WNW 06:23:55 10° SSW
Cosmos 1666 Rocket 3.7 06:19:46 10° N 06:24:14 80° E 06:28:42 10° S
SL-8 R/B 3.8 06:20:27 16° WNW 06:24:20 75° NNE 06:29:08 10° ESE
Cosmos 1072 Rocket 4.5 06:18:59 10° SSW 06:25:05 60° WNW 06:31:10 10° N
SL-14 R/B 4.2 06:21:37 10° NNW 06:25:06 28° W 06:28:35 10° SSW
IRS-1A Rocket 4.3 06:20:33 10° N 06:26:26 69° WNW 06:32:13 10° SSW
Cosmos 1271 Rocket 3.1 06:23:15 10° SW 06:26:52 38° WNW 06:30:27 10° N
Cosmos 2112 Rocket 4.4 06:21:42 10° NNW 06:27:01 67° ENE 06:32:20 10° SSE
Cosmos 2297 Rocket 3.3 06:24:19 10° WSW 06:28:47 23° NW 06:33:17 10° N
Cosmos 968 Rocket 4.0 06:24:36 10° SW 06:29:30 38° WNW 06:34:25 10° N
CZ-4 R/B 1.4 06:26:07 10° N 06:30:05 60° WNW 06:34:07 10° SSW
Aureole 1 4.2 06:27:19 10° SSW 06:30:21 69° WNW 06:33:53 10° NNE
CZ-2C R/B 2.2 06:26:15 10° N 06:30:52 72° WNW 06:35:24 10° SSW
Coronas F rocket 1.7 06:29:39 10° N 06:32:02 55° E 06:34:24 10° SSE
Cosmos 1484 Rocket 3.7 06:28:12 10° NNE 06:32:10 54° E 06:36:05 10° S
Cosmos 773 Rocket 4.3 06:30:01 10° NNW 06:35:05 49° WSW 06:40:09 10° S
Cosmos 2221 2.9 06:33:49 10° SSW 06:37:56 42° WNW 06:42:04 10° N
AQUARIUS 4.2 06:35:46 10° N 06:40:14 64° WNW 06:44:41 10° SSW
Cosmos 2227 Rocket 3.7 06:38:06 10° W 06:41:28 16° NW 06:44:51 10° N
Cosmos 292 Rocket 3.8 06:37:12 10° NNW 06:41:57 69° WSW 06:46:43 10° S
SPOT 3 Rocket 3.6 06:37:03 10° NNE 06:42:18 82° WNW 06:47:30 10° SSW
Meteor 1-4 Rocket 4.4 06:46:04 10° W 06:47:50 13° WNW 06:49:38 10° NW
CZ-4 R/B 4.4 06:44:19 10° N 06:48:26 73° WNW 06:52:32 10° SSW
Cosmos 2228 Rocket 3.3 06:46:22 10° S 06:50:48 77° E 06:55:14 10° NNE
SMAP 3.3 06:47:55 10° N 06:52:26 50° WNW 06:56:55 10° SW
Cosmos 1184 Rocket 3.2 06:49:18 10° NNW 06:52:27 42° W 06:55:36 10° SSW
IDEFIX/ARIANE 42P 2.8 06:48:12 10° N 06:53:15 49° WNW 06:58:19 10° SW
COSMOS 2441 4.3 06:50:22 10° N 06:55:11 74° WNW 06:59:57 10° SSW
Cosmos 2344 4.2 06:48:44 10° SSW 06:56:19 68° ESE 07:04:53 10° NE
Cosmos 1470 Rocket 3.8 06:52:11 10° N 06:56:31 73° E 07:00:50 10° SSE
Cosmos 1777 Rocket 4.4 06:51:47 10° SW 06:56:41 40° WNW 07:01:36 10° N
